World > North America > United States > Tennessee   Nashville, Music City

Nashville, Tennessee Regional Weather

Lat: 36.17N, Lon: 86.78W
Wx Zone: TNZ027Web Search

Our weather pages are very print friendly and they make great conversation starters.

Feedback
Nashville Weather Map
UTC Time: 3/5/2021, 10:22
Your Time:

Nashville, TN Regional Weather

Expires:202103051000;;498523
ASUS44 KMEG 050910
RWRTN 
TENNESSEE HOURLY STATE WEATHER ROUNDUP
NATIONAL WEATHER SERVICE MEMPHIS TN
300 AM CST FRI MAR 05 2021


TNZ008-025-027-028-033-062-065-066-051000-
NORTH MIDDLE TENNESSEE
  
CITY           SKY/WX    TMP DP  RH WIND       PRES   REMARKS
NASHVILLE      CLEAR     43  23  45 NE12      30.17R                  
DICKSON        PTCLDY    43  25  49 NE8       30.14S                  
PORTLAND       CLEAR     37  27  65 NE10      30.18R WCI  30          
CLARKSVILLE    CLEAR     40  26  57 NE7       30.19R                  
LEBANON        CLEAR     41  25  52 NE6       30.15R                  
SMYRNA         CLEAR     40  26  57 N6        30.18R                  
MURFREESBORO     N/A     41  27  56 N6        30.14R                  
COOKEVILLE     CLEAR     41  23  48 N7        30.14R                  
LIVINGSTON     CLEAR     34  25  69 NE16      30.13F WCI  23          
GALLATIN       CLEAR     41  25  52 NE7       30.20R                  
CROSSVILLE     CLEAR     36  21  54 NE9       30.12S WCI  29          
ROCKWOOD       CLEAR     37  21  52 N8G20     30.10S WCI  31          
$$


SKY/WX - Weather  TMP - Temperature  DP - Dew Point  RH - Relative Humidity
WIND - Wind Direction/Speed PRES - Barometric Pressure VSB - Visibility
WCI - Wind Chill Index E13G22 Wind - East Wind 13 mph/Gusts of 22 mph